EN

Hourly Weather Luis Gil Perez

Today, 1 December, Tuesday

Time Temperature Precipitation Wind Pressure Humidity
00:00 +23°C° 1.8 mm 2 mps 764 mmHg 96%
01:00 +23°C° 2.1 mm 1 mps 763 mmHg 95%
02:00 +23°C° 2.1 mm 1 mps 763 mmHg 95%
03:00 +23°C° 2.1 mm 1 mps 763 mmHg 95%
04:00 +23°C° 0.9 mm 1 mps 763 mmHg 94%
05:00 +23°C° 0.9 mm 1 mps 763 mmHg 94%
06:00 +22°C° 0.9 mm 1 mps 763 mmHg 94%
07:00 +23°C° 0.3 mm 1 mps 764 mmHg 93%
08:00 +23°C° 0.3 mm 1 mps 764 mmHg 93%
09:00 +23°C° 0.3 mm 2 mps 764 mmHg 93%
10:00 +24°C° 0.3 mm 2 mps 764 mmHg 89%
11:00 +25°C° 0.3 mm 2 mps 763 mmHg 85%
12:00 +26°C° 0.3 mm 2 mps 763 mmHg 82%
13:00 +26°C° 0.4 mm 2 mps 762 mmHg 82%
14:00 +26°C° 0.4 mm 3 mps 761 mmHg 83%
15:00 +26°C° 0.4 mm 3 mps 760 mmHg 83%
16:00 +25°C° 0.1 mm 2 mps 760 mmHg 85%
17:00 +24°C° 0.1 mm 2 mps 760 mmHg 88%
18:00 +23°C° 0.1 mm 2 mps 760 mmHg 90%
19:00 +21°C° 0 mm 2 mps 761 mmHg 91%
20:00 +21°C° 0 mm 2 mps 761 mmHg 93%
21:00 +21°C° 0 mm 2 mps 761 mmHg 94%
22:00 +21°C° 0 mm 1 mps 761 mmHg 94%
23:00 +21°C° 0 mm 1 mps 761 mmHg 95%

Tomorrow, 2 December, Wednesday

Time Temperature Precipitation Wind Pressure Humidity
00:00 +21°C° 0 mm 1 mps 761 mmHg 95%
01:00 +20°C° 0 mm 1 mps 760 mmHg 95%
02:00 +20°C° 0 mm 1 mps 760 mmHg 95%
03:00 +18°C° 0 mm 0 mps 759 mmHg 95%
04:00 +18°C° 0 mm 0 mps 759 mmHg 96%
05:00 +18°C° 0 mm 0 mps 759 mmHg 96%
06:00 +20°C° 0 mm 1 mps 760 mmHg 96%
07:00 +21°C° 0 mm 1 mps 760 mmHg 93%
08:00 +22°C° 0 mm 1 mps 761 mmHg 90%
09:00 +23°C° 0 mm 2 mps 761 mmHg 87%
10:00 +24°C° 0 mm 2 mps 761 mmHg 85%
11:00 +25°C° 0 mm 2 mps 760 mmHg 82%
12:00 +26°C° 0 mm 2 mps 760 mmHg 79%
13:00 +26°C° 0 mm 2 mps 759 mmHg 79%
14:00 +26°C° 0 mm 2 mps 759 mmHg 79%
15:00 +26°C° 0 mm 1 mps 758 mmHg 79%
16:00 +26°C° 0 mm 1 mps 758 mmHg 81%
17:00 +25°C° 0 mm 1 mps 758 mmHg 84%
18:00 +24°C° 0 mm 1 mps 759 mmHg 86%
19:00 +24°C° 0 mm 1 mps 759 mmHg 88%
20:00 +23°C° 0 mm 1 mps 760 mmHg 90%
21:00 +23°C° 0 mm 1 mps 760 mmHg 91%
22:00 +23°C° 0 mm 1 mps 760 mmHg 92%
23:00 +22°C° 0 mm 1 mps 760 mmHg 93%

Day after tomorrow, 3 December, Thursday

Time Temperature Precipitation Wind Pressure Humidity
00:00 +22°C° 0 mm 1 mps 760 mmHg 94%
01:00 +22°C° 0 mm 1 mps 760 mmHg 93%
02:00 +20°C° 0 mm 0 mps 759 mmHg 93%
03:00 +20°C° 0 mm 0 mps 759 mmHg 92%
04:00 +20°C° 0 mm 0 mps 759 mmHg 93%
05:00 +20°C° 0 mm 0 mps 759 mmHg 93%
06:00 +19°C° 0 mm 0 mps 760 mmHg 94%
07:00 +20°C° 0 mm 0 mps 760 mmHg 91%
08:00 +21°C° 0 mm 0 mps 761 mmHg 89%
09:00 +22°C° 0 mm 0 mps 761 mmHg 87%
10:00 +25°C° 0 mm 1 mps 761 mmHg 84%
11:00 +26°C° 0 mm 1 mps 760 mmHg 82%
12:00 +27°C° 0 mm 1 mps 760 mmHg 79%
13:00 +27°C° 0.1 mm 1 mps 760 mmHg 79%
14:00 +28°C° 0.1 mm 2 mps 759 mmHg 79%
15:00 +28°C° 0.1 mm 2 mps 758 mmHg 79%
16:00 +27°C° 0.3 mm 2 mps 759 mmHg 84%
17:00 +26°C° 0.3 mm 2 mps 759 mmHg 88%
18:00 +25°C° 0.3 mm 2 mps 760 mmHg 92%
19:00 +24°C° 0.2 mm 2 mps 760 mmHg 93%
20:00 +24°C° 0.2 mm 1 mps 761 mmHg 94%
21:00 +24°C° 0.2 mm 1 mps 761 mmHg 95%
22:00 +24°C° 0.2 mm 1 mps 761 mmHg 95%
23:00 +24°C° 0.2 mm 1 mps 761 mmHg 95%

4 December, Friday

Time Temperature Precipitation Wind Pressure Humidity
00:00 +24°C° 0.2 mm 1 mps 761 mmHg 95%
01:00 +24°C° 0.4 mm 1 mps 760 mmHg 95%
02:00 +23°C° 0.4 mm 1 mps 760 mmHg 95%
03:00 +23°C° 0.4 mm 1 mps 760 mmHg 96%
04:00 +23°C° 0.1 mm 2 mps 760 mmHg 96%
05:00 +23°C° 0.1 mm 2 mps 760 mmHg 96%
06:00 +22°C° 0.1 mm 3 mps 760 mmHg 97%
07:00 +24°C° 0 mm 3 mps 761 mmHg 96%
08:00 +24°C° 0 mm 3 mps 761 mmHg 95%
09:00 +25°C° 0 mm 3 mps 761 mmHg 94%
10:00 +25°C° 0.5 mm 4 mps 761 mmHg 91%
11:00 +26°C° 0.5 mm 4 mps 761 mmHg 88%
12:00 +27°C° 0.5 mm 5 mps 760 mmHg 86%
13:00 +27°C° 1 mm 5 mps 760 mmHg 87%
14:00 +26°C° 1 mm 5 mps 759 mmHg 88%
15:00 +26°C° 1 mm 5 mps 759 mmHg 89%
16:00 +25°C° 1.1 mm 5 mps 759 mmHg 91%
17:00 +25°C° 1.1 mm 5 mps 760 mmHg 93%
18:00 +23°C° 1.1 mm 4 mps 760 mmHg 94%
19:00 +23°C° 0.8 mm 4 mps 761 mmHg 94%
20:00 +23°C° 0.8 mm 4 mps 762 mmHg 94%
21:00 +23°C° 0.8 mm 4 mps 762 mmHg 94%
22:00 +23°C° 0.7 mm 4 mps 762 mmHg 94%
23:00 +22°C° 0.7 mm 4 mps 762 mmHg 94%

5 December, Saturday

Time Temperature Precipitation Wind Pressure Humidity
00:00 +22°C° 0.7 mm 4 mps 763 mmHg 94%
01:00 +22°C° 0.7 mm 4 mps 762 mmHg 94%
02:00 +22°C° 0.7 mm 4 mps 762 mmHg 94%
03:00 +22°C° 0.7 mm 4 mps 762 mmHg 94%
04:00 +22°C° 0.7 mm 4 mps 762 mmHg 94%
05:00 +22°C° 0.7 mm 3 mps 763 mmHg 94%
06:00 +21°C° 0.7 mm 3 mps 763 mmHg 93%
07:00 +21°C° 1 mm 3 mps 764 mmHg 94%
08:00 +21°C° 1 mm 3 mps 764 mmHg 94%
09:00 +21°C° 1 mm 2 mps 765 mmHg 94%
10:00 +21°C° 0.6 mm 2 mps 764 mmHg 94%
11:00 +21°C° 0.6 mm 2 mps 764 mmHg 93%
12:00 +21°C° 0.6 mm 2 mps 764 mmHg 93%
13:00 +21°C° 0.8 mm 2 mps 764 mmHg 93%
14:00 +21°C° 0.8 mm 2 mps 763 mmHg 94%
15:00 +21°C° 0.8 mm 2 mps 763 mmHg 94%
16:00 +21°C° 0.7 mm 2 mps 763 mmHg 94%
17:00 +22°C° 0.7 mm 1 mps 763 mmHg 94%
18:00 +22°C° 0.7 mm 1 mps 764 mmHg 94%
19:00 +21°C° 0.6 mm 1 mps 764 mmHg 94%
20:00 +21°C° 0.6 mm 1 mps 764 mmHg 94%
21:00 +21°C° 0.6 mm 1 mps 765 mmHg 94%
22:00 +21°C° 0.3 mm 1 mps 764 mmHg 94%
23:00 +21°C° 0.3 mm 1 mps 764 mmHg 94%

6 December, Sunday

Time Temperature Precipitation Wind Pressure Humidity
00:00 +21°C° 0.3 mm 1 mps 764 mmHg 94%
01:00 +21°C° 0.2 mm 1 mps 764 mmHg 94%
02:00 +21°C° 0.2 mm 1 mps 763 mmHg 95%
03:00 +21°C° 0.2 mm 1 mps 763 mmHg 95%
04:00 +21°C° 0.2 mm 1 mps 763 mmHg 95%
05:00 +21°C° 0.2 mm 1 mps 763 mmHg 95%
06:00 +21°C° 0.2 mm 1 mps 763 mmHg 95%
07:00 +21°C° 0.2 mm 1 mps 763 mmHg 94%
08:00 +21°C° 0.2 mm 1 mps 764 mmHg 93%
09:00 +22°C° 0.2 mm 1 mps 764 mmHg 92%
10:00 +22°C° 0.3 mm 1 mps 764 mmHg 89%
11:00 +23°C° 0.3 mm 2 mps 764 mmHg 87%
12:00 +24°C° 0.3 mm 3 mps 763 mmHg 84%
13:00 +24°C° 0.3 mm 3 mps 763 mmHg 84%
14:00 +24°C° 0.3 mm 3 mps 762 mmHg 84%
15:00 +24°C° 0.3 mm 3 mps 762 mmHg 84%
16:00 +22°C° 0.2 mm 3 mps 762 mmHg 87%
17:00 +21°C° 0.2 mm 2 mps 762 mmHg 90%
18:00 +20°C° 0.2 mm 2 mps 762 mmHg 92%
19:00 +20°C° 0 mm 2 mps 763 mmHg 93%
20:00 +20°C° 0 mm 2 mps 763 mmHg 93%
21:00 +20°C° 0 mm 2 mps 763 mmHg 93%
22:00 +20°C° 0 mm 2 mps 763 mmHg 93%
23:00 +19°C° 0 mm 2 mps 763 mmHg 93%
Show more